This is the latest recevied weather packets stored in our database for station/object OE6PLD-13. If no packets are shown the sender has not sent any weather packets the latest 1 day(s).
| Time | Temp. | Humidity | Pressure | Rain* | Wind** | Luminosity | Snow |
|---|---|---|---|---|---|---|---|
| 1778001661 | 20° C | 53% | 1012.8 hPa | 0.76 mm | 3.13 m/s, 266° | 36 W/m² | - |
| 1778001478 | 20.56° C | 52% | 1012.9 hPa | 0.76 mm | 0.45 m/s, 266° | 41 W/m² | - |
| 1778001295 | 20.56° C | 52% | 1012.9 hPa | 0.76 mm | 3.13 m/s, 266° | 45 W/m² | - |
| 1778001111 | 21.11° C | 51% | 1012.9 hPa | 0.76 mm | 0.45 m/s, 266° | 48 W/m² | - |
| 1778000928 | 20.56° C | 51% | 1012.9 hPa | 0.76 mm | 0.89 m/s, 266° | 46 W/m² | - |
| 1778000745 | 20.56° C | 51% | 1012.8 hPa | 0.76 mm | 2.24 m/s, 266° | 50 W/m² | - |
| 1778000561 | 20.56° C | 51% | 1013.1 hPa | 0.76 mm | 1.34 m/s, 266° | 50 W/m² | - |
| 1778000378 | 20.56° C | 51% | 1013 hPa | 0.76 mm | 1.34 m/s, 266° | 51 W/m² | - |
| 1778000194 | 21.11° C | 51% | 1013 hPa | 0.76 mm | 2.24 m/s, 266° | 54 W/m² | - |
| 1778000011 | 20.56° C | 51% | 1012.9 hPa | 0.76 mm | 0 m/s | 55 W/m² | - |
| 1777999828 | 20.56° C | 51% | 1013.1 hPa | 0.76 mm | 1.34 m/s, 266° | 59 W/m² | - |
| 1777999644 | 21.11° C | 50% | 1013.2 hPa | 0.76 mm | 1.79 m/s, 266° | 61 W/m² | - |
| 1777999461 | 21.11° C | 50% | 1012.9 hPa | 0.76 mm | 1.79 m/s, 266° | 62 W/m² | - |
| 1777999278 | 21.11° C | 49% | 1012.7 hPa | 0.76 mm | 3.58 m/s, 266° | 64 W/m² | - |
| 1777999094 | 20.56° C | 51% | 1013.1 hPa | 0.76 mm | 0 m/s | 66 W/m² | - |
| 1777998911 | 20.56° C | 51% | 1012.8 hPa | 0.76 mm | 1.34 m/s, 266° | 68 W/m² | - |
| 1777998727 | 20.56° C | 50% | 1013.1 hPa | 0.76 mm | 0.89 m/s, 266° | 74 W/m² | - |
| 1777998544 | 20° C | 51% | 1013.3 hPa | 0.76 mm | 0.45 m/s, 266° | 81 W/m² | - |
| 1777998361 | 19.44° C | 52% | 1013.1 hPa | 0.76 mm | 3.13 m/s, 266° | 79 W/m² | - |
| 1777998177 | 19.44° C | 52% | 1013.2 hPa | 0.76 mm | 4.02 m/s, 266° | 78 W/m² | - |
| 1777997994 | 19.44° C | 53% | 1012.9 hPa | 0.76 mm | 0.89 m/s, 266° | 84 W/m² | - |
| 1777997811 | 19.44° C | 52% | 1013.3 hPa | 0.76 mm | 3.58 m/s, 266° | 80 W/m² | - |
| 1777997627 | 19.44° C | 52% | 1013.4 hPa | 0.76 mm | 7.15 m/s, 266° | 82 W/m² | - |
| 1777997444 | 19.44° C | 52% | 1013.4 hPa | 0.76 mm | 2.68 m/s, 266° | 87 W/m² | - |
| 1777997261 | 19.44° C | 52% | 1013.4 hPa | 0.76 mm | 0.89 m/s, 266° | 92 W/m² | - |
* Rain latest hour (hover to see other rain measurements)
** Current wind speed in m/s (hover to see current wind gust speed)